Location: *
(46.3500°N, 10.9000°E)
Time: 11:05:34
(UTC+00:00)

Iridium 2 - Pass Details

Date: 09 April 2020
Orbit: 502 x 518 km, 85.5° (Epoch: 25 May)

Event Time Altitude Azimuth Distance (km) Brightness Sun altitude
Exits shadow 19:33:19 34° 132° (SE) 865 4.3 -16.3°
Maximum altitude 19:34:23 44° 89° (E) 729 4.0 -16.5°
Drops below altitude 10° 19:38:03 10° 17° (NNE) 1,759 6.6 -17.0°
Sets 19:40:15 0° 11° (N) 2,653 7.6 -17.3°
